Content
SEND FEEDBACK

Daily
Averages
Monthly
Summary
French Polynesia

PAPEETE, FRENCH POLYNESIA


Home > Oceania > French Polynesia
Elevation: 7 feet     Latitude: 17 33S     Longitude: 149 36W

WEATHER
 
SELECT A DAY
Number of Records: 216,052;   Date Range: 6/30/96 - 11/24/14
 
SHARE

PRINT THIS DATA

[ ← Previous Day ]
WEATHER ALMANAC - JANUARY 11, 2014
[ Next Day → ]
[ °C ]   °F
Weather ElementAverageHighLow
Temperature80.5 °F87.8 °F (11:00 am)75 °F (5:00 am)
Dewpoint70.2 °F74 °F (11:00 am)68 °F (3:30 am)
Humidity70.3 %83 % (12:30 am)57 % (11:00 am)
Barometer29.86 in29.91 in (8:00 am)29.80 in (3:30 pm)
Wind Speed6.8 mph18.4 mph (11:30 am)
Wind Gust26.5 mph (5:00 pm)
Weather ElementAverage
Visibility7.1 mi
Wind DirectionENE (81.1 °)

Weather ElementTotal
Precipitation---
Cooling Degree Days16.4 (Base 65)
Growing Degree Days31.4 (Base 50)
Averaged from 56 records on January 11, 2014
WEATHER CONDITIONS BREAKOUT
WIND DIRECTION BREAKOUT
WEATHER BY HOUR - JANUARY 11, 2014
[ °C ]   °F
Local TimeTemperatureDewpointHumidityBarometerVisibilityWind DirectionWind SpeedGust SpeedPrecipitationEventsConditions
12:30 AM77.0 °F71.6 °F83 %29.86 in6.2 miESE (110°)2.3 mphPartly Cloudy
1:00 AM77.0 °F69.8 °F78 %29.86 in6.2 miCalmPartly Cloudy
1:30 AM77.0 °F69.8 °F78 %29.83 in6.2 miCalmPartly Cloudy
2:00 AM76.0 °F70.0 °F78 %29.85 in12.0 miCalmScattered Clouds
2:00 AM75.2 °F69.8 °F83 %29.83 in6.2 miCalmPartly Cloudy
2:30 AM75.2 °F69.8 °F83 %29.83 in6.2 miEast (80°)2.3 mphPartly Cloudy
3:00 AM75.2 °F69.8 °F83 %29.83 in6.2 miEast (80°)2.3 mphPartly Cloudy
3:30 AM75.2 °F68.0 °F78 %29.83 in6.2 miCalm
4:00 AM75.2 °F68.0 °F78 %29.83 in6.2 miVariable3.5 mph
4:30 AM75.2 °F68.0 °F78 %29.83 in6.2 miVariable2.3 mph
5:00 AM75.0 °F68.0 °F72 %29.87 in37.0 miESE (110°)2.3 mphClear
5:00 AM75.2 °F68.0 °F78 %29.86 in6.2 miVariable2.3 mph
5:30 AM75.2 °F68.0 °F78 %29.86 in6.2 miEast (100°)3.5 mph
6:00 AM75.2 °F68.0 °F78 %29.89 in6.2 miVariable3.5 mphPartly Cloudy
6:12 AM75.2 °F68.0 °F78 %29.89 in6.2 miSouth (190°)2.3 mphPartly Cloudy
6:30 AM75.2 °F68.0 °F78 %29.89 in6.2 miCalmPartly Cloudy
7:00 AM77.0 °F69.8 °F78 %29.89 in6.2 miENE (60°)3.5 mphPartly Cloudy
7:30 AM78.8 °F69.8 °F74 %29.89 in6.2 miENE (70°)5.8 mphScattered Clouds
8:00 AM81.0 °F69.0 °F59 %29.91 in12.0 miNE (50°)5.8 mphPartly Cloudy
8:00 AM82.4 °F69.8 °F66 %29.89 in6.2 miNE (50°)5.8 mphScattered Clouds
8:30 AM82.4 °F69.8 °F66 %29.89 in6.2 miVariable2.3 mphScattered Clouds
9:00 AM84.2 °F69.8 °F62 %29.89 in6.2 miNorth (350°)3.5 mphPartly Cloudy
9:30 AM86.0 °F69.8 °F58 %29.89 in6.2 miNorth (350°)4.6 mphPartly Cloudy
10:00 AM86.0 °F71.6 °F62 %29.89 in6.2 miNE (50°)16.1 mphScattered Clouds
10:30 AM86.0 °F73.4 °F66 %29.86 in6.2 miNE (50°)13.8 mphPartly Cloudy
11:00 AM87.0 °F74.0 °F57 %29.88 in12.0 miNE (50°)12.7 mphScattered Clouds
11:00 AM87.8 °F73.4 °F62 %29.86 in6.2 miNE (50°)11.5 mphPartly Cloudy
11:30 AM86.0 °F73.4 °F66 %29.86 in6.2 miNE (50°)18.4 mphScattered Clouds
12:00 PM86.0 °F71.6 °F62 %29.86 in6.2 miSSW (210°)6.9 mphScattered Clouds
12:30 PM84.2 °F71.6 °F66 %29.86 in6.2 miVariable6.9 mphScattered Clouds
1:00 PM84.2 °F71.6 °F66 %29.86 in6.2 miSouth (190°)5.8 mphScattered Clouds
1:30 PM84.2 °F71.6 °F66 %29.83 in6.2 miENE (70°)17.3 mphScattered Clouds
2:00 PM84.0 °F71.0 °F57 %29.85 in6.0 miSE (140°)5.8 mphRainLight Rain Showers
2:00 PM84.2 °F71.6 °F66 %29.83 in6.2 miSSE (150°)5.8 mphRainRain Showers
2:30 PM84.2 °F69.8 °F62 %29.83 in6.2 miSouth (180°)8.1 mphRainRain Showers
3:00 PM87.8 °F73.4 °F62 %29.83 in6.2 miWSW (240°)4.6 mphScattered Clouds
3:30 PM86.0 °F73.4 °F66 %29.80 in6.2 miWSW (240°)4.6 mphScattered Clouds
4:00 PM86.0 °F69.8 °F58 %29.80 in6.2 miVariable5.8 mphScattered Clouds
4:30 PM86.0 °F71.6 °F62 %29.80 in6.2 miVariable4.6 mphScattered Clouds
5:00 PM83.0 °F72.0 °F63 %29.83 in9.0 miENE (60°)10.4 mphMostly Cloudy
5:00 PM82.4 °F71.6 °F70 %29.83 in6.2 miENE (60°)10.4 mph26.5 mphScattered Clouds
5:30 PM80.6 °F71.6 °F74 %29.83 in6.2 miENE (60°)13.8 mphScattered Clouds
6:00 PM82.4 °F69.8 °F66 %29.83 in6.2 miEast (80°)13.8 mphScattered Clouds
6:30 PM82.4 °F69.8 °F66 %29.83 in6.2 miENE (60°)18.4 mphScattered Clouds
7:00 PM82.4 °F69.8 °F66 %29.86 in6.2 miENE (60°)13.8 mphPartly Cloudy
7:30 PM80.6 °F69.8 °F70 %29.89 in6.2 miENE (60°)15.0 mphScattered Clouds
8:00 PM79.0 °F70.0 °F66 %29.88 in6.0 miENE (60°)6.9 mphRainLight Rain Showers
8:00 PM78.8 °F69.8 °F74 %29.86 in5.6 miENE (60°)6.9 mph18.4 mphRainLight Rain Showers
8:30 PM78.8 °F68.0 °F69 %29.86 in5.6 miENE (70°)13.8 mphRainLight Rain
9:00 PM78.8 °F69.8 °F74 %29.89 in5.6 miENE (60°)10.4 mphRainLight Rain
9:30 PM77.0 °F69.8 °F78 %29.89 in6.2 miEast (90°)4.6 mphRainLight Rain
10:00 PM78.8 °F69.8 °F74 %29.89 in6.2 miEast (80°)12.7 mphScattered Clouds
10:30 PM78.8 °F69.8 °F74 %29.89 in6.2 miESE (110°)6.9 mphPartly Cloudy
11:00 PM78.0 °F69.0 °F67 %29.90 in9.0 miESE (110°)5.8 mphScattered Clouds
11:00 PM77.0 °F69.8 °F78 %29.89 in6.2 miESE (110°)5.8 mphScattered Clouds
11:30 PM77.0 °F69.8 °F78 %29.86 in6.2 miVariable3.5 mphScattered Clouds
Hourly data recorded from NTAA, located miles away from Papeete, French Polynesia







STORIES FROM OUR PARTNERS